Wind_Speed
34 34 31 28 27 25 24 21 17 14 13 14 14 15 18 20 22 24 26 26 26 27 28 29 29 30 30 30 30 29 27 24 21 19 19 20 20 19 18 17 16 15 14 14 13 12 11 11 11 11 11 11 10 9 8 7 7 6 5 4 4 4 3
34 33 31 29 27 26 25 23 19 16 15 15 15 15 16 19 21 24 26 27 27 27 28 29 29 30 31 31 31 30 28 25 23 21 21 20 20 20 19 18 17 16 16 15 14 13 13 12 12 12 11 11 10 9 9 8 7 6 6 5 5 4 4
32 31 32 30 28 27 26 23 20 18 17 16 15 14 14 17 20 23 26 29 29 29 28 29 30 31 32 32 32 31 29 26 24 23 22 21 20 20 20 19 19 18 17 16 15 14 14 14 13 12 12 11 11 10 9 8 8 7 7 7 6 4 4
35 33 32 31 29 29 29 26 23 21 19 18 17 15 15 16 20 22 25 28 29 29 29 29 30 31 32 33 33 32 30 27 25 24 24 22 21 21 20 20 20 19 18 17 17 16 16 15 14 13 13 12 12 11 10 9 8 8 8 7 6 4 3
40 37 35 33 32 32 32 30 28 25 22 20 19 18 17 17 19 21 23 26 28 29 29 30 32 33 33 34 34 33 31 29 27 26 25 23 22 21 20 20 21 20 19 19 19 18 17 17 16 15 14 13 12 11 10 10 9 9 8 7 6 4 2
42 40 38 35 33 33 32 30 29 26 23 21 21 20 19 17 17 19 22 25 27 29 30 31 32 33 34 34 34 34 33 30 28 28 27 25 22 21 20 21 22 22 22 21 20 20 19 19 17 16 15 14 13 12 11 11 10 9 8 7 6 4 3
43 42 41 38 35 35 33 31 29 28 25 23 23 22 21 19 18 19 21 24 26 29 30 30 30 32 33 35 35 35 34 32 30 30 29 26 24 22 21 22 22 23 23 22 21 21 21 20 19 18 17 15 15 14 13 12 11 10 9 8 7 6 5
42 43 41 40 38 37 36 33 31 29 27 25 25 24 22 20 19 18 19 21 25 28 29 30 30 30 32 34 35 35 35 34 33 31 30 28 26 24 23 22 23 23 23 23 23 23 23 22 21 20 18 17 16 15 14 14 13 12 11 10 9 8 7
41 43 42 41 39 37 36 34 32 31 30 28 26 24 23 21 20 18 17 19 22 26 29 30 30 30 31 33 34 35 36 35 34 32 31 30 28 26 25 24 24 24 24 24 24 24 25 24 23 22 20 19 18 17 16 15 15 14 13 12 10 9 9
41 41 42 43 40 37 35 34 33 33 33 31 27 24 24 23 21 20 19 19 20 23 28 30 31 31 31 32 33 35 36 36 35 33 32 31 30 28 27 26 25 25 25 25 25 25 26 25 24 23 22 20 20 19 18 17 16 15 14 13 12 11 11
40 41 44 44 41 39 38 37 35 34 33 31 27 25 26 25 24 22 21 20 19 21 26 30 32 31 31 31 32 34 35 35 35 34 33 33 32 31 29 28 27 27 27 27 26 26 27 26 25 24 23 22 22 21 20 19 18 16 15 14 13 12 12
37 40 44 43 41 42 41 40 38 37 35 31 27 27 28 27 27 25 23 22 21 21 24 29 32 32 31 31 32 32 32 33 33 33 33 33 33 33 31 30 28 28 28 28 27 27 28 28 27 26 25 24 23 22 21 20 19 17 16 15 14 13 13
39 42 45 44 44 45 42 40 40 39 36 32 31 31 30 30 30 28 26 24 23 22 22 26 30 32 32 32 31 30 30 30 30 31 32 33 34 34 33 31 29 29 29 29 28 29 29 29 28 27 27 26 25 23 21 20 19 19 18 16 15 15 15
42 44 45 43 42 44 42 39 37 37 37 35 34 34 32 32 32 31 28 27 26 24 22 24 27 30 32 32 31 30 29 29 29 29 31 32 33 34 34 32 31 30 29 29 29 29 29 29 29 29 28 27 25 23 22 21 20 20 19 18 17 17 17
42 42 43 41 41 42 42 40 38 38 38 37 37 35 34 33 33 32 30 28 27 25 23 23 25 28 32 33 31 30 29 29 29 29 30 32 33 33 34 34 33 32 30 29 29 29 30 30 30 29 29 28 26 24 22 21 21 21 20 20 19 19 18
42 42 44 44 44 44 43 43 42 41 40 39 38 37 36 35 33 32 32 30 28 26 24 23 23 25 29 32 32 31 31 30 30 30 30 31 32 33 33 34 35 33 32 31 30 30 30 30 30 30 30 29 27 25 23 22 23 23 23 22 20 20 19
47 48 50 51 51 51 48 47 45 43 42 41 40 38 37 35 33 32 32 31 29 27 25 23 22 22 25 30 32 33 32 31 31 30 30 31 31 32 33 34 35 35 34 33 32 31 30 30 30 30 30 30 29 27 25 24 24 24 25 24 22 20 19
50 52 53 52 53 53 51 50 48 45 44 42 41 39 37 36 34 34 34 33 30 28 26 24 22 21 23 27 31 33 33 33 32 31 31 31 31 31 32 33 34 34 34 34 33 32 31 31 30 30 31 31 30 29 27 25 25 25 26 25 23 21 20
51 52 52 50 51 51 50 49 48 47 44 43 42 39 37 35 34 33 33 33 32 30 29 26 24 24 24 25 27 29 31 33 33 32 32 32 31 31 32 32 33 33 33 34 34 34 32 31 31 31 31 30 30 30 29 27 26 26 27 27 24 22 20
50 53 54 52 52 52 51 49 48 47 45 44 43 40 37 36 34 32 33 34 34 33 31 29 27 26 25 24 24 25 27 30 32 33 33 32 32 32 32 31 31 32 33 34 34 34 33 33 32 32 31 31 30 30 30 28 27 27 28 27 25 23 21
51 54 55 53 52 52 52 51 50 48 47 46 43 41 39 37 36 34 34 36 36 35 33 31 30 29 27 26 24 23 24 27 29 31 33 33 32 32 31 31 31 31 32 33 34 34 33 34 34 33 32 32 31 30 30 29 28 27 28 28 26 24 21
53 54 54 53 52 53 53 51 50 49 48 46 44 42 40 38 37 36 35 35 37 36 35 34 33 31 29 28 26 24 24 25 27 28 30 31 32 32 32 31 31 31 32 32 33 34 34 35 35 34 33 33 31 30 30 30 28 28 29 29 27 24 21
51 53 55 56 56 56 55 54 52 52 50 47 45 44 41 39 39 38 36 35 37 38 37 36 35 33 30 28 27 25 24 25 26 25 26 28 30 32 32 32 31 31 32 32 33 33 33 34 34 34 34 33 31 30 30 30 29 28 29 28 26 23 21
48 52 56 58 58 58 58 57 56 54 51 48 46 45 43 41 41 39 38 37 36 37 37 36 35 33 30 29 28 26 25 26 26 25 24 24 27 29 31 32 32 31 32 32 33 33 33 33 34 34 33 33 31 30 30 29 28 28 28 27 25 24 21
46 51 56 59 60 60 60 59 57 54 52 50 47 46 45 44 42 41 40 38 36 36 37 36 35 33 30 29 29 27 26 26 26 26 24 23 24 27 29 31 32 32 33 32 32 33 33 33 33 33 32 32 31 30 29 29 28 27 27 26 25 24 22
45 48 54 59 61 60 60 59 57 54 53 51 49 47 47 47 45 43 41 39 37 36 34 33 33 32 31 31 31 29 27 26 27 27 24 23 25 27 28 29 32 33 33 32 32 32 32 32 32 32 32 31 30 29 28 28 28 26 26 26 25 24 24
46 47 50 55 59 60 60 58 56 54 53 52 50 50 49 49 47 45 43 41 38 34 32 31 33 33 33 33 31 29 27 27 28 27 25 24 26 27 27 28 30 32 32 32 31 31 31 31 31 31 31 30 29 28 28 28 27 25 25 25 25 25 25
46 46 47 51 56 59 59 58 55 53 51 51 50 50 51 51 49 46 45 42 37 34 33 33 34 34 34 33 31 28 27 28 28 27 26 26 27 27 27 28 29 31 32 32 31 29 29 30 30 30 30 29 28 27 27 26 26 25 24 25 25 25 25
46 45 46 48 52 56 57 57 54 53 51 49 49 50 52 52 50 48 46 42 37 35 36 35 35 34 33 32 31 28 28 29 29 28 27 27 26 27 27 27 29 30 30 30 29 29 28 29 29 29 28 28 27 26 25 25 25 24 24 24 25 26 26
46 44 45 47 49 52 54 55 54 53 50 49 48 49 52 53 52 49 46 42 39 40 39 37 36 35 33 32 31 30 30 31 30 29 28 26 26 26 26 27 28 28 28 29 28 27 27 27 27 27 26 26 26 25 25 25 26 26 25 26 27 27 27
45 44 45 46 47 49 51 52 52 51 50 49 48 48 51 53 52 49 47 45 45 45 42 40 39 38 35 34 32 32 32 32 30 29 28 26 24 24 25 25 26 27 27 28 27 26 26 26 26 25 25 25 25 25 26 26 27 27 27 27 28 28 28
45 44 44 44 45 46 48 49 50 49 49 49 49 49 51 51 50 49 49 49 50 48 45 44 42 40 39 37 34 33 33 31 29 28 27 24 24 23 23 25 26 27 27 27 27 26 25 25 25 25 25 25 25 26 26 27 27 27 27 27 27 27 27
45 44 43 43 43 44 46 45 44 44 45 46 48 48 48 48 47 48 50 52 52 51 49 47 45 43 41 39 35 34 32 30 29 28 26 24 24 24 24 26 27 28 28 27 26 26 25 25 25 25 25 25 25 25 26 26 26 26 27 27 27 27 27
45 44 43 42 42 42 42 41 41 42 43 44 44 43 43 43 45 46 49 51 52 52 51 50 47 45 43 39 35 33 31 30 29 28 26 25 25 25 26 27 28 28 27 27 27 26 26 26 25 25 25 25 25 26 26 26 26 27 27 27 26 27 28
45 44 43 42 41 40 40 41 41 41 41 40 39 40 42 45 47 48 49 49 49 50 51 50 48 45 41 37 33 31 31 30 30 29 28 27 28 27 27 28 28 28 28 28 28 27 27 27 27 27 28 28 28 28 27 27 26 26 26 25 23 23 24
46 46 45 43 41 40 40 41 40 39 38 38 39 41 44 46 48 49 49 48 48 49 50 49 46 42 37 34 32 31 32 32 31 30 30 29 28 28 27 27 28 28 28 28 29 28 28 28 29 29 29 29 29 28 27 26 26 25 24 23 21 21 20
49 48 47 44 42 41 41 41 41 39 38 38 38 40 41 43 45 46 46 47 47 48 49 47 43 38 35 33 32 32 33 33 32 31 31 30 28 27 27 28 29 29 30 30 30 30 30 30 30 31 31 30 29 28 27 26 25 25 24 23 23 22 21
51 50 49 46 43 43 43 43 42 40 38 38 37 37 38 40 41 43 43 44 45 45 45 43 38 35 34 35 35 35 35 34 33 32 32 30 29 28 29 30 31 32 32 32 32 32 32 32 32 32 32 32 31 29 28 28 27 26 26 25 25 25 24
Wind_Direction
229 231 229 222 219 219 215 213 211 209 212 218 219 214 210 208 206 207 209 212 215 215 214 213 211 209 206 206 206 206 207 206 202 199 199 200 200 200 198 196 196 194 192 191 187 185 189 192 192 191 188 190 194 197 200 199 196 194 187 178 172 173 179
226 228 229 224 222 223 219 212 205 207 216 223 225 222 217 213 209 208 208 209 212 214 214 214 213 211 209 208 209 209 209 208 202 199 201 202 202 201 200 198 197 195 194 191 187 188 193 196 197 198 197 196 199 202 202 199 191 185 175 163 157 152 147
230 228 227 224 221 223 224 220 210 207 216 226 229 227 222 217 213 212 211 209 210 211 212 213 213 212 211 211 211 212 211 209 203 201 203 204 204 204 201 199 198 197 196 192 188 193 198 199 201 202 200 199 200 201 200 193 183 175 165 157 153 148 140
234 233 228 221 218 220 222 222 216 210 215 224 227 226 222 219 216 215 214 213 213 212 212 212 213 213 213 212 213 214 214 210 204 202 205 205 205 205 202 200 200 200 198 194 193 197 201 203 204 202 201 199 198 198 195 189 180 172 166 161 158 156 152
234 234 232 222 218 220 221 220 217 210 212 221 226 225 223 222 221 218 217 216 216 215 214 212 212 211 212 214 215 216 216 212 206 205 207 208 208 206 203 202 202 202 201 198 197 200 203 206 205 204 202 199 197 196 193 188 182 175 172 170 170 177 193
235 235 235 227 220 222 224 224 223 215 210 218 226 227 225 224 224 222 220 218 217 218 218 217 215 213 212 213 215 217 218 215 210 207 208 210 210 208 205 205 205 203 203 201 199 201 206 208 207 205 204 201 198 197 195 192 187 184 184 185 189 202 223
235 235 235 230 222 221 222 223 227 224 215 215 222 226 225 224 224 224 222 221 219 219 220 221 221 218 216 215 215 217 218 217 214 211 210 211 210 209 208 209 208 206 206 204 201 204 207 209 209 207 206 203 200 200 199 198 195 194 196 200 207 220 236
231 233 232 230 225 221 219 217 222 226 223 218 221 226 228 226 227 228 227 225 223 220 221 223 224 223 221 219 218 218 219 219 217 214 213 212 211 210 210 211 211 210 209 208 205 206 208 210 211 210 208 205 204 204 204 204 205 204 206 211 219 229 241
229 230 230 230 226 222 220 216 216 221 224 222 221 227 233 232 231 234 234 232 228 223 221 222 224 225 224 223 222 221 221 221 219 217 216 215 213 211 210 211 213 212 212 212 211 210 211 212 212 213 211 209 209 210 209 211 213 213 215 218 223 232 243
226 227 228 229 226 222 221 220 217 219 225 225 221 225 234 237 236 235 236 236 233 227 223 222 222 224 225 225 224 224 224 223 222 220 219 219 217 215 212 211 213 214 214 214 214 214 215 216 216 216 215 214 214 215 215 216 219 221 222 223 225 232 244
226 226 227 227 224 222 220 220 220 222 225 226 224 227 234 240 241 240 239 238 237 233 228 224 223 223 225 226 226 226 226 226 225 223 221 221 221 219 216 213 213 214 214 215 216 217 218 219 219 219 219 218 218 219 218 219 221 224 227 227 228 234 244
222 223 227 226 223 223 221 219 221 224 225 227 228 230 235 240 244 244 242 240 237 235 231 228 225 224 226 227 228 228 228 228 227 226 224 224 224 224 222 218 215 215 215 216 217 218 220 221 222 222 222 221 221 221 221 222 223 226 229 230 231 236 245
220 218 222 222 221 223 224 222 223 225 226 227 229 231 234 239 243 245 244 241 238 236 234 231 228 226 228 229 229 229 229 230 229 227 227 227 227 227 226 223 220 219 219 218 218 219 221 223 224 225 225 225 225 224 224 224 225 227 229 231 232 237 244
222 221 223 224 224 225 224 224 226 227 226 226 229 232 234 236 240 243 243 241 239 236 234 234 231 228 229 231 232 231 231 231 230 228 227 227 228 229 229 227 225 223 223 222 221 222 223 225 226 227 228 229 228 227 227 227 227 228 231 232 234 238 243
220 222 224 225 226 228 227 225 225 227 227 228 230 231 233 235 237 241 242 241 240 238 233 232 232 229 230 232 234 233 233 232 231 229 229 228 228 229 230 230 228 227 227 226 226 226 225 226 228 229 231 233 232 231 230 229 229 230 232 234 235 238 244
215 216 219 222 223 226 228 227 226 227 227 228 229 229 232 234 235 239 243 242 241 241 236 232 231 231 231 233 234 234 234 234 233 231 231 230 230 230 230 230 230 229 229 229 230 230 229 230 230 230 232 234 235 234 233 232 231 231 233 236 236 239 245
213 213 215 218 219 220 222 224 225 227 227 227 228 228 230 232 233 236 240 241 240 241 239 234 231 231 232 234 235 235 235 236 236 235 234 233 233 233 232 232 231 230 231 231 232 234 234 235 234 234 235 236 237 236 235 234 233 232 234 237 238 240 245
218 217 217 219 218 218 219 221 222 224 226 229 229 227 227 229 231 233 236 238 238 239 238 234 229 228 231 233 236 237 237 238 238 238 237 237 236 236 235 234 233 232 232 233 234 235 237 238 239 239 239 239 239 239 238 237 236 234 236 238 239 241 245
220 220 221 221 220 219 220 222 223 224 225 228 230 228 226 226 228 231 234 236 236 237 236 234 229 228 229 232 235 238 240 241 241 241 240 240 239 239 238 238 236 235 234 235 236 236 237 239 241 243 243 243 243 242 241 240 239 237 238 239 240 242 246
218 220 221 220 219 218 218 220 224 226 226 228 229 228 227 227 226 227 231 234 234 234 234 233 231 229 230 232 233 236 240 242 243 243 243 242 242 242 242 242 241 239 238 238 238 237 237 239 241 243 246 246 246 245 244 243 241 240 240 241 241 243 246
216 220 221 220 219 219 218 219 222 224 227 229 230 229 228 229 229 227 228 231 233 233 234 234 232 230 230 232 233 235 239 243 244 245 245 245 245 244 244 245 244 243 243 242 242 241 240 240 241 243 245 247 247 247 247 245 243 242 242 241 241 243 246
216 218 222 222 221 221 222 222 222 224 227 230 232 232 229 230 233 232 229 230 232 233 234 234 234 232 231 233 235 236 240 244 245 246 246 247 248 247 246 245 245 245 245 245 245 244 244 243 243 244 245 247 247 248 247 246 244 243 242 241 240 242 246
216 216 219 222 223 223 224 224 224 226 229 230 233 235 234 233 237 238 234 229 229 231 233 234 235 234 233 235 237 238 241 245 246 247 247 247 248 249 248 247 245 245 246 247 247 247 247 247 247 246 246 247 247 246 246 245 244 243 243 241 240 241 244
216 215 217 220 222 224 225 225 226 227 229 230 231 235 236 236 238 241 240 234 229 230 232 234 236 236 235 236 239 240 243 246 248 247 246 247 249 249 249 248 246 245 245 246 248 249 249 248 248 247 247 247 246 245 244 244 243 243 243 243 241 240 244
217 216 217 219 222 223 225 226 227 227 229 230 231 233 236 237 238 239 241 239 234 231 232 233 236 237 236 238 241 242 243 245 248 248 248 249 250 249 248 248 247 246 245 245 247 248 249 249 249 248 247 246 245 243 242 243 243 243 244 244 243 242 244
218 218 217 218 221 223 225 227 228 228 229 230 231 233 234 236 237 238 239 239 238 236 234 234 235 237 237 239 242 243 243 244 247 248 248 249 250 249 247 246 246 245 245 245 246 248 249 250 248 246 245 244 243 241 241 242 243 243 244 244 243 243 245
219 219 219 219 221 223 225 226 227 228 229 230 231 231 232 234 235 236 237 237 238 239 237 235 235 237 239 241 243 244 244 245 247 247 246 247 249 249 248 246 245 244 244 244 247 249 249 249 246 244 242 241 241 240 239 241 242 241 241 241 241 243 246
218 219 219 219 221 223 225 226 228 228 229 230 230 230 231 233 234 235 236 236 237 240 240 237 236 238 241 244 245 244 244 246 247 247 245 245 248 249 249 247 245 243 244 245 248 251 250 247 244 241 240 239 238 238 238 240 242 240 238 239 241 244 248
219 219 219 219 220 222 225 227 229 230 230 229 229 228 230 232 233 233 236 236 236 240 242 241 240 240 241 244 246 245 245 246 248 247 246 246 248 248 247 246 244 244 245 247 250 251 249 245 241 238 237 236 236 237 237 238 239 237 235 238 242 245 249
219 219 218 219 219 220 223 227 230 231 230 229 228 226 228 230 231 233 236 234 233 238 241 241 242 243 243 245 247 246 246 247 248 248 247 247 247 246 244 243 243 244 245 247 249 249 245 241 238 236 234 234 234 235 235 234 234 234 234 237 242 246 249
219 219 218 218 219 219 221 225 229 230 229 229 228 226 227 229 229 231 234 233 233 236 239 239 240 242 244 246 247 247 247 248 248 247 246 245 245 244 242 242 242 243 245 246 247 245 240 236 234 232 231 231 231 232 232 233 234 236 238 240 244 247 250
217 217 217 218 218 218 219 222 227 228 228 228 228 228 229 229 228 228 230 232 234 236 236 236 237 239 241 245 247 247 247 247 246 245 243 242 243 242 241 240 240 240 242 243 242 239 235 232 230 229 229 229 230 231 232 234 236 239 241 243 246 249 252
215 215 216 216 217 217 217 220 223 225 225 226 227 229 230 231 230 229 229 230 232 233 231 232 234 236 240 244 246 245 244 243 242 241 241 241 241 241 240 238 238 238 239 239 237 234 230 228 228 227 227 228 229 231 232 234 237 240 242 245 247 250 253
212 213 213 214 215 215 214 214 215 217 221 224 226 228 229 228 227 226 225 226 227 227 226 228 230 234 239 242 241 238 237 237 238 239 239 238 238 238 237 236 235 235 235 234 232 229 226 225 225 225 224 224 226 229 232 235 238 242 245 248 251 253 256
210 211 211 212 212 210 208 208 211 214 218 222 223 222 222 222 221 221 221 222 222 221 222 224 228 234 237 236 232 231 232 234 235 236 236 236 237 236 236 235 234 234 232 230 229 227 226 225 224 223 223 224 225 229 234 238 242 248 253 256 256 258 261
209 209 209 210 209 208 206 207 211 215 217 218 218 217 218 218 219 219 219 218 218 218 219 222 227 232 232 227 224 226 230 232 234 235 236 237 238 237 235 234 233 232 230 229 228 228 227 226 225 225 227 230 233 237 240 244 248 254 258 260 261 264 266
208 208 208 209 209 207 207 208 211 214 215 214 214 214 214 213 214 215 214 214 213 215 218 222 225 227 225 223 224 226 229 232 233 235 237 238 239 237 233 230 229 229 228 227 226 227 227 227 227 227 230 234 239 242 245 248 251 253 256 258 261 265 267
206 207 207 209 210 208 208 209 211 212 212 211 210 209 208 207 207 207 208 210 212 215 218 221 224 224 223 223 225 226 229 232 234 236 238 238 237 234 230 228 228 228 226 225 226 227 228 228 229 231 233 236 240 243 246 249 252 254 256 258 260 263 266
Height
5877 5879 5881 5883 5884 5886 5888 5888 5890 5893 5896 5899 5900 5901 5902 5903 5905 5908 5910 5913 5915 5917 5919 5921 5923 5926 5928 5929 5930 5932 5933 5935 5937 5939 5940 5941 5942 5944 5945 5946 5947 5948 5949 5950 5951 5953 5954 5955 5957 5957 5958 5959 5960 5960 5961 5962 5962 5962 5963 5963 5963 5964 5964
5875 5876 5878 5881 5883 5885 5887 5886 5886 5890 5895 5898 5899 5901 5902 5903 5905 5906 5908 5911 5913 5916 5918 5920 5922 5924 5926 5928 5929 5931 5933 5935 5937 5938 5939 5941 5942 5943 5945 5946 5947 5948 5949 5950 5951 5953 5954 5955 5956 5957 5958 5959 5960 5960 5961 5962 5962 5963 5963 5963 5964 5964 5964
5873 5874 5877 5880 5883 5885 5886 5886 5886 5889 5894 5897 5898 5900 5901 5902 5904 5905 5907 5909 5911 5913 5915 5918 5920 5922 5924 5926 5928 5930 5932 5934 5936 5937 5939 5940 5942 5943 5944 5945 5947 5948 5949 5950 5952 5952 5953 5955 5956 5957 5958 5959 5959 5960 5961 5962 5962 5963 5963 5964 5964 5964 5965
5872 5873 5875 5880 5882 5882 5882 5884 5886 5888 5892 5895 5897 5899 5900 5901 5902 5903 5905 5907 5909 5912 5914 5916 5919 5921 5923 5925 5927 5929 5931 5933 5935 5937 5938 5939 5940 5942 5943 5945 5946 5948 5949 5950 5951 5952 5953 5954 5955 5956 5957 5958 5959 5960 5961 5962 5962 5963 5963 5964 5964 5965 5965
5871 5873 5874 5877 5880 5879 5879 5882 5884 5886 5890 5893 5895 5897 5899 5900 5901 5903 5904 5906 5908 5910 5912 5914 5916 5918 5920 5923 5925 5927 5929 5932 5934 5935 5937 5938 5940 5941 5943 5944 5946 5947 5948 5949 5950 5952 5953 5953 5954 5956 5956 5957 5959 5960 5961 5962 5963 5963 5964 5964 5964 5965 5965
5869 5871 5872 5874 5878 5880 5881 5884 5885 5885 5887 5891 5893 5895 5897 5899 5900 5902 5903 5905 5907 5909 5910 5912 5914 5916 5919 5921 5923 5925 5928 5930 5932 5934 5936 5937 5939 5941 5942 5943 5945 5946 5947 5948 5950 5951 5952 5953 5954 5955 5956 5957 5958 5960 5961 5962 5962 5963 5964 5964 5964 5965 5965
5867 5869 5870 5872 5876 5878 5879 5882 5885 5886 5887 5888 5890 5893 5895 5897 5899 5900 5902 5903 5905 5907 5909 5911 5914 5916 5918 5919 5921 5924 5926 5929 5931 5933 5934 5936 5938 5940 5941 5942 5944 5945 5946 5947 5949 5950 5951 5952 5953 5954 5955 5957 5958 5959 5960 5961 5962 5963 5963 5964 5964 5965 5965
5864 5865 5867 5869 5873 5877 5878 5879 5882 5885 5887 5887 5887 5890 5894 5896 5898 5899 5901 5903 5904 5906 5908 5910 5912 5915 5917 5918 5921 5923 5925 5927 5929 5931 5933 5935 5937 5938 5940 5941 5943 5944 5945 5947 5948 5949 5950 5951 5952 5953 5955 5956 5957 5959 5960 5961 5961 5962 5963 5963 5964 5964 5965
5861 5863 5865 5867 5870 5875 5877 5879 5880 5882 5885 5886 5886 5889 5892 5895 5897 5899 5900 5902 5903 5905 5907 5908 5911 5913 5915 5917 5919 5921 5923 5925 5927 5930 5932 5934 5935 5937 5938 5940 5941 5943 5945 5946 5947 5948 5949 5950 5951 5952 5954 5955 5956 5958 5959 5960 5961 5962 5962 5963 5964 5964 5964
5858 5861 5862 5863 5867 5872 5875 5877 5878 5879 5882 5884 5885 5888 5890 5893 5896 5898 5899 5900 5902 5903 5905 5906 5908 5910 5913 5915 5917 5919 5920 5923 5926 5928 5930 5932 5934 5936 5937 5938 5940 5941 5943 5945 5946 5947 5948 5949 5950 5951 5953 5954 5955 5957 5958 5959 5960 5961 5962 5962 5963 5964 5964
5856 5858 5858 5860 5865 5869 5871 5874 5876 5878 5881 5882 5883 5886 5889 5891 5893 5896 5898 5899 5901 5902 5903 5905 5907 5909 5911 5913 5915 5917 5919 5921 5924 5926 5929 5931 5932 5934 5935 5937 5938 5940 5941 5943 5944 5946 5947 5948 5949 5950 5952 5953 5954 5955 5956 5958 5959 5960 5961 5962 5963 5963 5963
5853 5854 5854 5857 5861 5864 5867 5871 5874 5877 5879 5880 5881 5884 5887 5889 5891 5893 5896 5898 5899 5900 5901 5903 5905 5907 5909 5911 5912 5915 5917 5920 5922 5925 5927 5929 5930 5932 5934 5935 5937 5938 5940 5941 5943 5944 5945 5947 5948 5949 5950 5951 5952 5954 5955 5956 5958 5959 5960 5961 5962 5962 5963
5848 5850 5851 5853 5856 5859 5863 5867 5870 5873 5877 5878 5880 5882 5885 5887 5888 5890 5893 5895 5897 5899 5900 5901 5904 5906 5908 5909 5911 5913 5916 5918 5920 5923 5925 5926 5928 5930 5932 5934 5936 5937 5938 5940 5941 5942 5944 5945 5946 5947 5948 5949 5950 5952 5953 5955 5956 5957 5959 5960 5961 5961 5961
5845 5848 5850 5851 5854 5857 5860 5865 5868 5870 5873 5875 5877 5880 5883 5885 5886 5887 5890 5893 5894 5897 5898 5900 5902 5904 5906 5907 5910 5912 5914 5916 5918 5920 5922 5924 5926 5928 5930 5932 5934 5936 5937 5939 5940 5941 5942 5943 5944 5946 5946 5947 5949 5950 5952 5953 5955 5956 5957 5958 5959 5960 5960
5843 5846 5849 5851 5853 5855 5857 5862 5866 5868 5871 5873 5875 5877 5880 5882 5883 5885 5887 5890 5892 5894 5897 5898 5900 5902 5904 5906 5908 5911 5913 5914 5916 5917 5919 5921 5923 5925 5928 5930 5932 5934 5935 5937 5938 5939 5940 5941 5943 5944 5945 5946 5948 5949 5950 5952 5953 5954 5956 5956 5957 5958 5959
5841 5844 5846 5848 5850 5852 5855 5858 5862 5865 5867 5870 5872 5874 5877 5879 5881 5883 5885 5888 5890 5892 5894 5897 5899 5900 5902 5904 5907 5909 5910 5912 5914 5915 5917 5919 5921 5923 5925 5927 5929 5931 5933 5935 5936 5938 5939 5940 5941 5943 5944 5944 5946 5947 5949 5950 5951 5953 5954 5954 5956 5957 5957
5833 5835 5836 5839 5841 5845 5848 5852 5857 5861 5864 5866 5869 5872 5874 5876 5879 5881 5882 5885 5887 5890 5892 5894 5897 5899 5901 5902 5904 5906 5908 5910 5912 5914 5915 5917 5919 5921 5922 5924 5926 5928 5931 5933 5934 5936 5937 5938 5939 5941 5942 5943 5944 5946 5947 5949 5950 5951 5952 5953 5954 5955 5956
5828 5829 5831 5833 5836 5840 5844 5848 5852 5857 5860 5863 5866 5869 5872 5874 5876 5878 5880 5882 5885 5887 5889 5891 5894 5897 5898 5900 5901 5903 5906 5908 5910 5912 5913 5915 5917 5919 5920 5922 5924 5926 5928 5930 5932 5933 5935 5936 5938 5939 5940 5941 5943 5944 5946 5947 5948 5949 5950 5951 5953 5954 5955
5824 5827 5830 5833 5837 5840 5843 5845 5850 5853 5857 5860 5863 5866 5869 5872 5874 5876 5878 5880 5882 5884 5886 5888 5891 5894 5895 5897 5899 5901 5904 5905 5907 5909 5911 5913 5915 5916 5918 5920 5922 5924 5926 5928 5929 5931 5933 5934 5935 5936 5938 5939 5941 5942 5944 5945 5946 5948 5948 5949 5951 5952 5953
5820 5823 5826 5830 5834 5837 5839 5843 5847 5851 5854 5856 5859 5862 5866 5868 5871 5874 5875 5877 5879 5881 5883 5885 5888 5890 5893 5895 5897 5899 5901 5903 5905 5907 5909 5911 5913 5914 5916 5918 5920 5922 5924 5925 5926 5928 5930 5932 5933 5934 5935 5937 5938 5940 5941 5943 5944 5946 5946 5947 5949 5951 5952
5814 5818 5822 5826 5829 5832 5836 5840 5844 5848 5851 5853 5855 5859 5862 5864 5868 5871 5872 5873 5876 5878 5881 5883 5885 5887 5890 5892 5895 5897 5899 5900 5902 5904 5906 5908 5910 5912 5914 5916 5918 5920 5921 5923 5924 5926 5928 5929 5930 5932 5933 5934 5936 5937 5939 5940 5942 5943 5944 5945 5947 5949 5950
5812 5816 5820 5823 5826 5829 5833 5837 5841 5845 5848 5851 5853 5855 5857 5861 5864 5867 5870 5872 5874 5876 5878 5880 5882 5884 5887 5890 5893 5896 5897 5898 5900 5901 5903 5905 5907 5910 5912 5913 5915 5917 5918 5920 5921 5923 5925 5926 5927 5929 5930 5932 5933 5935 5936 5937 5939 5940 5941 5943 5945 5947 5948
5811 5814 5817 5819 5822 5826 5830 5834 5838 5842 5845 5849 5852 5853 5855 5859 5861 5863 5866 5869 5871 5873 5875 5877 5879 5882 5885 5888 5890 5893 5895 5896 5897 5899 5901 5903 5905 5906 5908 5910 5912 5914 5915 5917 5918 5920 5922 5923 5924 5926 5927 5929 5931 5932 5933 5934 5936 5938 5938 5940 5942 5944 5946
5808 5811 5813 5816 5819 5823 5827 5830 5834 5838 5843 5847 5849 5851 5854 5857 5859 5861 5863 5865 5868 5871 5873 5875 5877 5880 5883 5886 5888 5890 5892 5893 5895 5897 5898 5900 5902 5904 5905 5907 5909 5911 5912 5913 5915 5916 5918 5920 5921 5923 5924 5926 5928 5929 5930 5931 5933 5935 5936 5937 5940 5942 5943
5804 5807 5810 5812 5815 5819 5822 5826 5831 5836 5840 5843 5847 5850 5853 5855 5856 5858 5860 5863 5865 5868 5870 5873 5876 5879 5881 5883 5885 5887 5889 5891 5892 5894 5896 5898 5899 5900 5902 5903 5905 5907 5908 5910 5911 5913 5914 5916 5918 5919 5921 5923 5924 5926 5927 5928 5930 5932 5933 5935 5937 5939 5940
5800 5803 5805 5808 5812 5815 5819 5823 5828 5833 5836 5839 5844 5848 5850 5851 5853 5855 5858 5860 5862 5865 5868 5872 5875 5876 5878 5880 5882 5884 5886 5888 5889 5891 5893 5895 5896 5897 5898 5900 5901 5903 5905 5906 5908 5909 5911 5913 5914 5916 5918 5920 5921 5923 5924 5926 5927 5930 5931 5932 5934 5936 5937
5796 5799 5801 5805 5808 5812 5816 5820 5825 5829 5832 5836 5840 5844 5846 5848 5849 5852 5856 5858 5860 5863 5867 5870 5872 5873 5875 5877 5879 5881 5883 5885 5887 5888 5890 5891 5892 5893 5895 5896 5898 5899 5901 5903 5904 5906 5908 5909 5911 5913 5915 5916 5918 5920 5922 5923 5925 5927 5928 5929 5931 5933 5934
5792 5794 5797 5801 5804 5808 5812 5816 5820 5825 5828 5832 5836 5840 5842 5844 5846 5849 5853 5855 5858 5862 5864 5866 5868 5870 5872 5874 5876 5879 5881 5882 5884 5885 5887 5888 5889 5890 5892 5893 5894 5896 5898 5900 5901 5903 5905 5906 5907 5909 5911 5913 5915 5917 5919 5920 5922 5924 5926 5927 5928 5929 5930
5788 5791 5794 5797 5800 5803 5808 5812 5816 5820 5824 5828 5832 5836 5838 5840 5842 5846 5850 5854 5857 5859 5859 5861 5864 5867 5869 5871 5873 5876 5878 5879 5880 5882 5883 5885 5886 5887 5888 5890 5891 5893 5895 5897 5898 5900 5902 5903 5904 5906 5908 5910 5912 5914 5916 5917 5919 5921 5923 5924 5925 5926 5927
5784 5787 5790 5793 5796 5800 5804 5808 5812 5816 5820 5824 5828 5831 5833 5835 5839 5843 5848 5852 5854 5853 5854 5858 5861 5863 5866 5868 5870 5873 5874 5875 5877 5878 5879 5881 5882 5883 5885 5886 5888 5890 5892 5894 5895 5897 5899 5900 5902 5904 5906 5908 5910 5911 5913 5914 5916 5918 5919 5920 5921 5922 5923
5781 5784 5787 5789 5793 5796 5800 5804 5807 5811 5815 5819 5822 5826 5829 5831 5836 5841 5845 5847 5848 5848 5851 5855 5857 5860 5862 5865 5867 5869 5871 5872 5873 5874 5876 5878 5879 5880 5881 5883 5885 5887 5889 5891 5892 5894 5896 5897 5899 5901 5903 5905 5907 5908 5910 5911 5912 5914 5915 5916 5917 5918 5920
5777 5780 5783 5786 5790 5793 5797 5800 5803 5806 5810 5814 5817 5821 5824 5827 5832 5837 5839 5841 5842 5844 5848 5851 5854 5857 5859 5861 5864 5866 5867 5868 5870 5871 5873 5874 5876 5877 5878 5880 5882 5884 5886 5887 5889 5891 5893 5894 5896 5898 5900 5902 5903 5905 5906 5907 5909 5910 5911 5913 5914 5915 5916
5773 5777 5780 5783 5786 5789 5793 5796 5799 5802 5806 5809 5812 5816 5819 5823 5828 5831 5834 5836 5838 5841 5844 5848 5851 5853 5856 5858 5861 5862 5864 5865 5866 5868 5870 5871 5872 5874 5875 5877 5879 5881 5883 5885 5886 5888 5890 5891 5893 5895 5897 5899 5900 5902 5903 5904 5905 5907 5908 5910 5911 5913 5914
5769 5773 5777 5780 5783 5786 5790 5793 5796 5799 5802 5806 5809 5812 5816 5820 5823 5826 5829 5831 5834 5836 5841 5844 5847 5850 5852 5855 5857 5858 5860 5861 5863 5864 5866 5868 5869 5870 5872 5874 5876 5878 5880 5882 5883 5885 5887 5888 5890 5892 5894 5896 5897 5898 5900 5901 5902 5903 5905 5907 5909 5910 5911
5766 5770 5774 5777 5780 5783 5787 5790 5793 5796 5800 5803 5806 5809 5812 5815 5818 5820 5823 5827 5829 5833 5837 5841 5843 5846 5848 5851 5853 5855 5856 5858 5859 5861 5863 5864 5865 5867 5869 5871 5873 5875 5877 5878 5880 5882 5884 5886 5887 5889 5891 5892 5894 5895 5896 5898 5900 5901 5902 5904 5906 5907 5908
5763 5766 5770 5773 5777 5780 5784 5787 5790 5794 5797 5800 5803 5805 5808 5810 5813 5816 5820 5823 5826 5830 5833 5837 5839 5842 5844 5847 5849 5851 5853 5854 5856 5858 5859 5861 5862 5864 5867 5868 5870 5872 5874 5875 5877 5880 5881 5883 5885 5887 5888 5889 5891 5893 5894 5896 5898 5899 5900 5902 5903 5905 5906
5758 5762 5766 5770 5773 5777 5781 5784 5787 5791 5793 5796 5798 5801 5804 5807 5809 5812 5815 5819 5822 5826 5830 5833 5835 5838 5841 5843 5845 5847 5849 5851 5853 5855 5856 5858 5860 5862 5864 5866 5867 5869 5871 5873 5875 5877 5878 5880 5882 5884 5885 5887 5888 5890 5893 5894 5895 5896 5898 5899 5900 5901 5903
5755 5758 5762 5766 5770 5773 5777 5781 5784 5786 5790 5792 5795 5797 5801 5803 5806 5809 5812 5815 5819 5823 5827 5830 5832 5835 5837 5839 5841 5843 5845 5847 5849 5851 5853 5855 5857 5859 5861 5862 5864 5866 5868 5870 5872 5874 5876 5878 5879 5881 5883 5884 5886 5888 5890 5891 5892 5893 5894 5896 5897 5898 5899